Regional Weather Roundup
Issued by NWS

Home | Current Version | Previous Version | Graphics & Text | Print | Product List | Glossary On
Versions: 1 2 3 4 5 6 7 8 9 10 11 12 13 14 15 16 17 18 19 20 21 22 23 24 25 26 27 28 29 30 31 32 33 34 35 36 37 38 39 40 41 42 43 44 45 46 47 48 49 50
654
ASUS44 KLIX 200510
RWRLA
LOUISIANA WEATHER ROUNDUP
NATIONAL WEATHER SERVICE NEW ORLEANS LA
1200 AM CDT WED AUG 20 2014

NOTE: "FAIR" INDICATES FEW OR NO CLOUDS BELOW 12,000 FEET WITH NO
      SIGNIFICANT WEATHER AND/OR OBSTRUCTIONS TO VISIBILITY.
      SKY/WX - SKY CONDITION AND SIGNIFICANT WEATHER.
      TMP - AIR TEMPERATURE.    DP   - DEWPOINT TEMPERATURE.
      RH  - RELATIVE HUMIDITY.  PRES - PRESSURE.
      HX  - HEAT INDEX.         WCI  - WIND CHILL INDEX.

*  THESE STATIONS ARE NOT NWS OR FAA STATIONS AND ARE NOT UNDER
   NWS QUALITY CONTROL.

LAZ040-048-061>063-065-066-069-200600-
SOUTHEAST LOUISIANA

CITY           SKY/WX    TMP DP  RH WIND       PRES   REMARKS
N.O. AUDUBON   NOT AVBL
N.O. INTL ARPT MOCLDY    81  75  82 CALM      29.99S
N.O. LAKEFRONT PTCLDY    84  75  74 SW5       30.00S
N.O. DOWNTOWN* FAIR      84  72  65 S3        30.00S
SLIDELL        CLEAR     77  73  87 CALM      29.98F
BATON ROUGE    PTCLDY    76  70  82 CALM      29.98F
BOOTHVILLE     PTCLDY    83  75  77 S7        30.01S
BELLE CHASSE   PTCLDY    78  74  87 CALM      29.99S
BOGALUSA*      FAIR      78  73  83 CALM      30.00S
GALLIANO*      NOT AVBL
NEW ROADS*     FAIR      73  73  97 CALM      29.98S
GONZALES*      FAIR      74  74 100 CALM      29.98F
HAMMOND*       PTCLDY    77  72  83 CALM      30.00F
HOUMA*         CLEAR     77  73  87 CALM      30.00S
PORT FOURCHON* CLEAR     86  75  70 S5        30.02S HX  95

$$

LAZ041-044-053-054-200600-
SOUTHWEST LOUISIANA

CITY           SKY/WX    TMP DP  RH WIND       PRES   REMARKS
LAKE CHARLES   CLOUDY    75  73  93 E3        29.96R
LAFAYETTE      MOCLDY    74  73  97 CALM      29.99S
PATTERSON      PTCLDY   N/A N/A N/A MISG        N/A
SALT POINT       N/A     81  77  88 SE5       29.98S
NEW IBERIA     PTCLDY    76  73  91 E5        29.99S
CHENAULT AIRPK CLOUDY    73  73  99 CALM      29.98R

$$

LAZ027-028-200600-
CENTRAL LOUISIANA

CITY           SKY/WX    TMP DP  RH WIND       PRES   REMARKS
FORT POLK      MOCLDY    74  72  93 SE3       29.97R
ALEXANDRIA INT PTCLDY    75  72  90 S3        29.95R
ALEXANDRIA     MOCLDY    76  73  91 CALM      29.96S

$$

LAZ001-002-200600-
NORTHWEST LOUISIANA

CITY           SKY/WX    TMP DP  RH WIND       PRES   REMARKS
SHREVEPORT     CLOUDY    75  68  78 S7        29.93R
BARKSDALE AFB  MOCLDY    73  68  83 SE6       29.93R
DTN SHREVEPORT MOCLDY    77  66  68 SW6       29.93R

$$

LAZ014-016-200600-
NORTHEAST LOUISIANA

CITY           SKY/WX    TMP DP  RH WIND       PRES   REMARKS
MONROE         MOCLDY    77  71  82 S8        29.95R
TALLULAH       CLOUDY    76  72  87 CALM      29.96S

$$




USA.gov is the U.S. government's official web portal to all federal, state and local government web resources and services.